This is the latest recevied weather packets stored in our database for station/object DB0DUS-10. If no packets are shown the sender has not sent any weather packets the latest 10 day(s).
| Time | Temp. | Humidity | Pressure | Rain* | Wind** | Luminosity | Snow |
|---|---|---|---|---|---|---|---|
| 1777514895 | 8.33° C | 56% | 1028.7 hPa | 0 mm | - | - | - |
| 1777514596 | 8.33° C | 56% | 1028.5 hPa | 0 mm | - | - | - |
| 1777513095 | 8.33° C | 57% | 1028.6 hPa | 0 mm | - | - | - |
| 1777511596 | 8.33° C | 57% | 1028.5 hPa | 0 mm | - | - | - |
| 1777511295 | 8.33° C | 57% | 1028.7 hPa | 0 mm | - | - | - |
| 1777510096 | 8.89° C | 56% | 1028.7 hPa | 0 mm | - | - | - |
| 1777509495 | 8.89° C | 54% | 1028.6 hPa | 0 mm | - | - | - |
| 1777508596 | 9.44° C | 53% | 1028.6 hPa | 0 mm | - | - | - |
| 1777507695 | 9.44° C | 51% | 1028.6 hPa | 0 mm | - | - | - |
| 1777507096 | 9.44° C | 52% | 1028.6 hPa | 0 mm | - | - | - |
| 1777505896 | 9.44° C | 54% | 1028.5 hPa | 0 mm | - | - | - |
| 1777505597 | 9.44° C | 55% | 1028.5 hPa | 0 mm | - | - | - |
| 1777504096 | 10° C | 53% | 1028.4 hPa | 0 mm | - | - | - |
| 1777502596 | 10.56° C | 51% | 1028.2 hPa | 0 mm | - | - | - |
| 1777502296 | 10.56° C | 51% | 1028.2 hPa | 0 mm | - | - | - |
| 1777501096 | 11.11° C | 50% | 1028 hPa | 0 mm | - | - | - |
| 1777500496 | 11.67° C | 50% | 1027.8 hPa | 0 mm | - | - | - |
| 1777499597 | 11.67° C | 49% | 1027.8 hPa | 0 mm | - | - | - |
| 1777498696 | 12.22° C | 47% | 1027.6 hPa | 0 mm | - | - | - |
| 1777498097 | 12.22° C | 47% | 1027.6 hPa | 0 mm | - | - | - |
| 1777496896 | 12.78° C | 45% | 1027.4 hPa | 0 mm | - | - | - |
| 1777496597 | 12.78° C | 44% | 1027.1 hPa | 0 mm | - | - | - |
| 1777495096 | 13.89° C | 42% | 1027.2 hPa | 0 mm | - | - | - |
| 1777493597 | 14.44° C | 40% | 1027 hPa | 0 mm | - | - | - |
| 1777493296 | 14.44° C | 39% | 1026.9 hPa | 0 mm | - | - | - |
* Rain latest hour (hover to see other rain measurements)
** Current wind speed in m/s (hover to see current wind gust speed)